Regional Weather Roundup
Issued by NWS

Home | Current Version | Previous Version | Text Only | Print | Product List | Glossary On
Versions: 1 2 3 4 5 6 7 8 9 10 11 12 13 14 15 16 17 18 19 20 21 22 23 24 25 26 27 28 29 30 31 32 33 34 35 36 37 38 39 40 41 42 43 44 45 46 47 48 49 50
000
ASUS45 KABQ 230001
RWRNM
WEATHER ROUNDUP FOR NEW MEXICO
NATIONAL WEATHER SERVICE ALBUQUERQUE NM
600 PM MDT WED OCT 22 2014

NOTE: "FAIR" MEANS FEW OR NO CLOUDS BELOW 12,000 FEET AGL WITH NO
       SIGNIFICANT WEATHER OR OBSTRUCTIONS TO VISION.

      THIS PRODUCT IS RELEASED AS TWO VERSIONS.  ONE VERSION NEAR
      THE TOP OF THE HOUR CONTAINING PRELIMINARY DATA FROM ALBUQUERQUE
      AND OTHER STATIONS.  A FINAL VERSION WITH ADDITIONAL DATA IS
      ISSUED ABOUT 10 MINUTES AFTER THE HOUR.

NMZ501-503-504-510>518-230100-
NORTHWEST PLATEAU/NORTHCENTRAL MOUNTAINS

CITY           SKY/WX    TMP DP  RH WIND       PRES   REMARKS
FARMINGTON     CLEAR     68  35  29 W9        30.13S
6HR MIN TEMP:  62; 6HR MAX TEMP:  72;

LOS ALAMOS     CLOUDY    62  39  43 CALM      30.23S
SANTA FE       PTCLDY    65  38  36 NE7       30.16S
6HR MIN TEMP:  63; 6HR MAX TEMP:  70;

TAOS           PTCLDY    63  30  29 NW8       30.21R
ANGEL FIRE     CLOUDY    55  31  40 SW5       30.27R

$$
NMZ402-403-502-505>509-230100-
WESTCENTRAL MOUNTAINS/SOUTHWEST MOUNTAINS

CITY           SKY/WX    TMP DP  RH WIND       PRES   REMARKS
GALLUP         CLEAR     67  35  30 SW9       30.19S
6HR MIN TEMP:  63; 6HR MAX TEMP:  70;

GRANTS         CLEAR     66  34  30 CALM      30.20S
SILVER CITY    CLEAR     68  46  45 S6        30.17S

$$
NMZ407-409-411-412-230100-
SOUTHERN DESERTS

CITY           SKY/WX    TMP DP  RH WIND       PRES   REMARKS
LORDSBURG      FAIR      73  48  40 MISG      30.10R
DEMING         CLEAR     73  47  39 SW6       30.10R
6HR MIN TEMP:  68; 6HR MAX TEMP:  75;

LAS CRUCES     CLEAR     72  48  42 CALM      30.11F
HOLLOMAN AFB   CLEAR     72  52  49 SE3       30.08S
T OR C         CLEAR     72  45  37 S7        30.11R
6HR MIN TEMP:  66; 6HR MAX TEMP:  74;


$$
NMZ519>523-230100-
CENTRAL VALLEYS/CENTRAL HIGHLANDS

CITY           SKY/WX    TMP DP  RH WIND       PRES   REMARKS
ALBUQUERQUE    PTCLDY    72  37  28 W3        30.13S
6HR MIN TEMP:  63; 6HR MAX TEMP:  73;

DOUBLE EAGLE   PTCLDY    68  39  34 CALM      30.16S
MORIARTY ARPT  FAIR      66  35  32 W7        30.18S
6HR MIN TEMP:  62; 6HR MAX TEMP:  71;

CLINES CORNERS PTCLDY    63  29  27 NW14      30.20R
6HR MIN TEMP:  62; 6HR MAX TEMP:  69;

BELEN          FAIR      71  41  34 SE6       30.12S
6HR MIN TEMP:  66; 6HR MAX TEMP:  74;

SOCORRO        FAIR      71  47  42 SE7       30.11S
6HR MIN TEMP:  67; 6HR MAX TEMP:  74;


$$
NMZ524>526-539-540-230100-
SOUTHCENTRAL MOUNTAINS

CITY           SKY/WX    TMP DP  RH WIND       PRES   REMARKS
RUIDOSO        PTCLDY    63  43  48 N8        30.23S

$$
NMZ527>531-230100-
NORTHEAST HIGHLANDS/NORTHEAST PLAINS

CITY           SKY/WX    TMP DP  RH WIND       PRES   REMARKS
LAS VEGAS      CLEAR     64  32  30 N5        30.17R
6HR MIN TEMP:  63; 6HR MAX TEMP:  70;

RATON          CLOUDY    67  33  28 S7        30.11R
6HR MIN TEMP:  65; 6HR MAX TEMP:  72; 6HR PCP: TRACE;

CLAYTON        CLEAR     66  40  38 NE7       30.08R
6HR MIN TEMP:  66; 6HR MAX TEMP:  76;


$$
NMZ532>537-230100-
EASTCENTRAL PLAINS

CITY           SKY/WX    TMP DP  RH WIND       PRES   REMARKS
TUCUMCARI      HVY RAIN  68  56  65 SE6       30.03R
6HR MIN TEMP:  67; 6HR MAX TEMP:  79; 6HR PCP:  0.11;

CANNON AFB     CLEAR     70  51  50 S9        30.07R
6HR MIN TEMP:  67; 6HR MAX TEMP:  74;

CLOVIS AIRPORT CLEAR     70  50  49 S8        30.09S

$$
NMZ028-029-538-230100-
SOUTHEAST PLAINS

CITY           SKY/WX    TMP DP  RH WIND       PRES   REMARKS
ROSWELL        CLEAR     71  57  61 SE8       30.06S
6HR MIN TEMP:  68; 6HR MAX TEMP:  74;

CARLSBAD       PTCLDY    71  60  68 SE5       30.05R
6HR MIN TEMP:  68; 6HR MAX TEMP:  73;

HOBBS          PTCLDY    70  57  64 SE7       30.10R


$$



USA.gov is the U.S. government's official web portal to all federal, state and local government web resources and services.